Location: EverStaR Observatory
(38.9036°N, 94.8303°W)
Time: 04:26:44
(UTC-05:00)

Envisat - Visible Passes

Search period start: 20 March 2019 00:00
Search period end: 30 March 2019 00:00
Orbit: 764 x 766 km, 98.2° (Epoch: 19 March)

Date Brightness Start Highest point End Pass type
(mag) Time Alt. Az. Time Alt. Az. Time Alt. Az.
20 Mar 3.0 19:52:54 10° SSE 19:57:59 82° ENE 20:03:05 10° N visible
20 Mar 6.4 21:37:30 10° W 21:37:35 10° W 21:37:38 10° W visible
21 Mar 5.4 20:56:22 10° SSW 21:00:26 24° W 21:04:33 10° NW visible
22 Mar 3.8 20:18:33 10° S 20:23:31 55° W 20:28:31 10° NNW visible
23 Mar 6.0 21:23:48 10° WSW 21:26:13 13° W 21:28:39 10° WNW visible
24 Mar 5.0 20:44:42 10° SSW 20:49:09 31° W 20:53:38 10° NW visible
25 Mar 3.4 20:07:14 10° S 20:12:17 71° WSW 20:17:22 10° NNW visible
26 Mar 5.8 21:11:35 10° SW 21:14:54 17° W 21:18:13 10° NW visible
27 Mar 4.5 20:33:09 10° SSW 20:37:53 39° W 20:42:38 10° NNW visible
29 Mar 5.5 20:59:41 10° SW 21:03:34 22° W 21:07:30 10° NW visible
